Temp
8 8 8 8 8 8 8 8 8 8 8 8 8 8 8 8 8 8 11 18 18 18 18 19 19 20 21 23 22 22 23 24 24 23 25 25 25 26 27 27 28 29 29 30 27
8 8 8 8 7 7 7 8 8 8 8 8 8 8 8 8 8 9 20 19 18 19 18 20 21 21 22 22 23 23 22 23 23 24 24 25 25 25 26 27 27 28 30 29 26
8 7 7 7 7 7 7 8 8 8 8 8 8 8 7 8 10 19 18 18 18 17 19 20 20 22 22 21 21 21 22 22 23 24 24 24 24 26 26 26 27 27 29 30 29
8 8 8 7 7 7 8 8 8 8 8 8 7 7 7 8 21 19 20 19 19 19 19 20 21 21 21 22 22 22 21 23 24 24 24 24 25 25 26 26 27 27 28 28 29
9 8 8 7 7 8 8 8 8 7 8 8 8 7 8 12 17 19 20 20 18 18 20 21 21 21 22 22 21 22 22 23 23 23 23 24 24 25 26 27 27 27 27 28 28
12 10 11 12 11 9 8 8 8 8 7 8 8 7 9 17 19 18 19 19 19 18 19 20 22 22 22 22 22 22 22 23 23 23 23 23 25 24 26 27 27 27 27 28 28
13 13 13 13 14 14 13 10 8 9 8 8 8 8 10 18 18 18 18 18 19 19 20 19 21 22 22 22 22 22 22 22 23 24 24 24 24 23 25 26 26 27 28 28 28
13 13 13 13 13 15 15 14 13 9 8 8 8 9 15 18 18 18 17 18 19 19 20 20 20 21 22 21 21 22 21 22 23 22 24 23 24 25 25 24 25 26 27 27 27
13 14 13 13 13 13 14 15 14 11 9 8 8 10 18 18 18 20 20 20 19 19 19 20 21 20 21 21 21 20 22 21 22 23 22 23 24 24 25 25 24 24 25 26 26
13 13 14 13 12 12 12 13 12 10 9 9 10 13 17 21 20 20 19 20 21 21 21 21 20 21 20 21 21 20 20 20 20 23 22 22 23 24 24 24 24 24 25 25 25
12 13 13 14 13 9 11 11 14 13 11 18 19 19 20 20 20 20 19 20 21 21 21 20 21 21 21 21 21 20 20 20 21 22 21 22 22 23 24 24 24 25 24 24 25
12 13 13 13 13 11 11 14 18 17 16 16 16 17 18 18 19 21 20 22 21 21 20 21 21 21 21 20 20 20 20 21 21 22 21 22 22 23 23 24 25 25 25 24 24
12 13 13 13 13 11 11 15 16 16 17 18 17 17 18 19 19 20 22 21 21 20 20 20 21 20 20 20 20 21 20 21 21 21 22 22 22 23 24 23 24 25 25 24 24
12 12 12 12 11 12 13 15 16 16 17 19 19 20 19 20 20 21 22 23 21 21 20 20 21 20 20 20 21 20 21 21 20 20 21 21 20 23 23 23 24 25 25 26 24
12 12 12 8 9 12 15 16 16 16 18 21 21 20 19 21 22 21 21 22 21 21 20 21 21 21 21 21 21 21 21 20 20 20 20 21 20 22 23 22 23 24 25 25 25
12 12 10 10 8 14 15 16 16 18 18 21 21 20 20 21 22 21 21 22 21 21 20 21 21 21 21 20 20 20 20 20 18 20 19 21 21 21 23 23 24 24 24 24 24
11 12 10 10 14 14 16 17 18 17 21 20 21 21 21 21 21 22 21 21 21 20 20 21 21 21 20 20 19 19 19 19 19 20 20 20 19 21 22 22 22 23 24 23 21
12 13 12 12 13 14 15 18 17 18 19 21 20 21 20 21 20 21 20 20 19 19 20 19 19 19 19 20 19 19 18 18 16 18 19 19 17 20 21 19 19 20 20 19 19
12 13 13 13 15 14 18 17 18 18 19 19 20 19 19 19 20 20 19 19 19 19 19 18 18 18 18 18 19 17 17 16 16 17 16 18 19 21 19 18 18 19 19 19 19
10 10 13 14 14 15 17 16 17 18 18 19 18 19 18 19 17 18 19 19 19 18 18 18 18 17 18 18 16 17 17 15 14 14 16 18 18 18 18 17 18 18 18 17 18
10 15 15 15 14 17 17 16 17 18 17 17 18 18 19 18 18 19 19 19 18 17 18 17 17 17 17 18 18 16 15 14 14 12 14 15 18 17 17 17 17 18 17 16 16
8 16 15 15 16 13 15 15 15 17 17 17 17 18 18 18 17 17 18 18 18 17 17 15 16 16 17 17 16 16 16 16 14 13 12 12 15 19 19 17 16 16 16 15 16
9 10 14 13 15 14 13 15 16 16 16 15 15 17 18 17 17 17 17 18 17 17 16 15 15 15 16 15 15 15 15 15 14 13 13 13 16 18 17 18 18 17 16 16 16
11 12 12 12 11 11 11 13 13 15 14 15 15 17 16 16 17 16 16 17 17 17 16 15 15 16 16 17 15 14 15 15 15 13 14 15 16 17 17 17 17 16 16 16 16
10 9 9 11 12 10 10 12 13 13 13 13 13 14 13 14 14 15 16 16 16 15 14 15 15 14 15 15 15 15 15 15 15 15 13 15 15 16 16 15 15 15 15 15 15
11 11 9 9 10 10 11 12 12 11 11 11 10 11 11 11 13 13 15 15 15 14 14 12 14 13 14 15 15 14 15 15 15 15 15 15 14 15 15 15 15 15 14 14 15
6 7 9 9 10 10 11 10 10 9 10 11 11 10 10 11 12 14 14 14 15 15 14 14 14 13 14 14 14 15 15 14 14 14 14 13 16 15 14 14 13 13 14 14 14
Height
808 806 803 800 798 796 794 793 792 791 790 788 786 784 781 779 776 774 768 758 757 760 762 764 765 766 770 772 774 775 784 784 782 784 781 775 780 768 766 766 762 758 754 754 752
808 804 801 799 796 794 792 791 789 788 787 786 784 782 779 777 773 767 755 755 756 756 761 764 764 766 769 772 773 774 783 784 779 773 778 777 779 773 770 767 765 760 753 754 753
807 803 800 797 794 791 789 787 786 785 784 783 782 780 778 777 774 755 754 754 756 757 761 764 765 765 769 772 775 777 779 780 776 769 771 775 775 767 767 768 763 761 752 749 750
806 802 798 794 792 789 786 785 783 783 781 780 780 780 779 779 764 754 750 751 755 758 760 763 764 766 771 772 773 780 776 772 769 767 769 772 767 765 761 759 759 755 751 747 746
805 801 796 792 789 787 784 782 781 780 779 778 778 778 779 777 763 755 753 753 757 758 760 761 763 765 768 771 774 776 773 769 767 768 768 766 767 763 753 752 750 750 747 745 742
804 799 794 790 787 784 782 781 779 777 777 777 776 776 778 769 756 755 755 756 757 758 759 760 760 761 765 769 770 770 770 767 766 765 765 764 757 757 750 744 743 744 742 738 736
804 799 793 788 785 782 779 778 777 775 775 775 775 775 775 760 755 755 756 757 757 759 761 762 762 763 764 768 767 768 769 767 763 762 759 755 755 758 746 742 742 735 735 734 733
803 798 793 788 783 779 777 775 773 773 772 773 774 774 762 752 752 753 755 757 757 759 761 761 762 762 763 765 768 770 773 773 763 763 755 759 753 746 743 746 743 736 733 732 729
801 796 791 786 781 776 772 771 769 768 772 772 774 772 755 750 750 749 751 753 756 758 760 761 763 765 766 770 774 777 775 779 773 760 762 760 753 745 739 740 741 737 732 729 727
799 794 788 783 778 772 769 768 768 769 772 773 773 772 752 748 747 747 749 753 754 756 759 761 763 764 769 768 775 777 779 779 777 760 760 758 753 744 739 737 737 735 732 729 726
797 792 785 780 775 769 767 768 771 771 770 755 751 750 747 746 746 746 747 752 753 755 759 762 763 766 764 766 768 773 777 777 767 758 767 758 751 745 737 734 732 729 730 726 723
795 789 783 776 770 763 763 762 758 762 757 748 747 749 748 748 750 744 746 750 755 759 761 764 765 758 761 766 771 772 774 770 763 757 762 750 746 740 737 730 724 722 720 720 719
792 786 779 772 765 762 761 759 758 759 758 744 743 743 742 746 748 744 743 747 752 759 760 763 758 758 762 765 768 764 769 764 764 756 749 746 737 732 727 724 720 715 714 714 715
788 783 777 768 765 762 759 758 758 757 760 746 740 738 740 740 744 737 739 742 751 755 760 759 752 757 761 762 761 766 756 758 760 760 760 751 738 724 723 719 714 712 710 708 710
784 779 773 770 765 761 758 757 756 757 765 739 738 735 738 739 736 738 738 740 747 752 756 752 753 756 757 755 755 756 754 756 756 756 753 749 743 724 718 720 718 712 707 703 702
779 772 767 762 762 757 756 756 757 765 767 740 737 741 743 739 736 737 739 739 741 749 752 748 748 749 748 751 753 754 755 754 760 755 755 738 737 726 718 712 708 704 700 697 695
773 765 759 760 758 756 755 756 765 768 743 749 745 741 741 742 741 738 742 747 749 756 752 744 747 745 746 751 755 756 760 760 755 749 745 739 742 724 716 715 711 706 699 697 701
768 758 758 758 758 756 755 758 769 759 754 744 744 741 749 747 746 744 747 749 750 751 753 759 757 749 748 749 755 758 763 770 770 756 746 747 744 722 717 722 719 711 709 706 704
764 761 760 759 757 757 755 764 761 760 755 755 747 751 753 756 754 750 752 751 748 749 755 759 760 752 752 752 755 766 766 769 770 762 762 742 728 717 722 722 720 716 715 712 705
768 766 764 761 760 758 759 768 762 760 757 753 759 752 760 753 762 759 754 747 749 750 750 755 761 756 754 752 760 760 763 774 782 778 758 733 729 726 724 722 721 721 719 717 710
771 766 766 761 761 759 763 767 762 758 759 762 757 758 753 755 754 753 751 749 748 753 751 755 759 759 758 755 754 765 767 773 778 784 767 751 724 724 723 721 719 715 721 718 716
778 767 766 762 765 774 770 770 767 760 757 762 762 754 754 754 755 758 754 750 750 751 753 762 760 762 755 756 758 757 760 763 769 771 775 773 734 715 714 721 722 720 719 717 715
786 782 768 764 770 776 776 771 767 765 764 766 766 757 753 753 759 755 753 751 752 752 755 760 764 764 756 761 760 760 759 758 762 769 765 764 729 715 719 715 713 715 716 715 713
788 781 778 779 788 787 786 776 773 769 768 765 766 758 758 756 755 757 761 755 752 752 754 757 759 757 756 748 756 759 755 754 756 761 748 739 723 719 717 714 711 711 710 707 704
794 799 802 790 786 793 792 781 776 773 771 771 772 766 771 764 761 758 757 755 753 754 760 759 757 758 753 752 752 750 748 748 749 744 748 727 728 719 717 714 713 713 709 705 700
795 796 800 797 795 791 785 779 775 777 781 777 780 777 776 779 768 767 761 759 756 757 758 764 758 758 753 748 745 746 739 737 737 736 735 732 727 720 718 715 712 709 707 702 698
801 801 800 797 793 793 785 784 784 788 783 777 777 780 778 772 770 763 761 757 753 752 755 757 756 758 750 748 745 736 734 736 734 735 734 732 717 717 717 716 711 707 703 695 690
Wind_Speed
20 18 18 19 18 17 16 15 14 14 13 14 13 14 15 16 17 10 9 8 2 15 8 5 7 8 6 4 3 3 5 11 14 11 8 3 3 5 5 12 8 5 10 13 10
21 20 19 18 18 17 16 14 14 13 11 12 12 13 14 14 15 12 6 7 6 12 11 3 7 9 4 5 5 6 6 9 4 5 6 5 6 11 9 14 15 17 13 9 1
23 22 21 19 18 17 16 13 12 12 10 10 10 10 11 11 5 5 7 5 12 14 9 7 9 4 4 3 4 5 8 4 3 6 7 5 6 7 12 18 15 17 17 15 15
24 23 22 20 18 17 15 14 11 10 9 8 7 8 7 2 2 5 11 12 19 12 10 8 5 6 4 7 5 4 5 9 8 13 15 16 15 18 20 21 16 17 19 19 17
26 24 23 21 19 17 15 13 11 9 8 6 5 6 1 3 8 3 3 16 15 12 9 6 8 5 5 4 5 5 3 5 9 10 11 14 16 18 21 16 18 17 19 19 18
30 26 25 25 21 17 16 14 11 9 8 6 4 2 2 4 2 2 9 15 10 7 7 7 5 3 4 3 4 6 3 3 4 6 7 9 14 8 6 8 14 14 17 17 17
32 33 30 26 23 19 15 14 14 10 8 7 3 2 2 10 3 3 12 9 13 7 5 4 3 2 4 4 3 1 3 4 6 5 5 5 15 9 12 11 14 15 13 14 14
33 34 34 32 28 20 15 15 15 12 6 3 3 2 6 3 4 7 12 5 9 8 3 4 3 2 1 5 3 1 1 3 2 5 4 5 20 8 1 9 13 15 12 11 10
34 37 36 34 33 26 16 13 12 4 3 5 4 2 7 4 5 4 13 5 8 6 4 5 1 2 3 3 1 2 3 1 5 5 6 6 13 7 16 16 12 12 15 14 13
35 38 40 38 36 30 15 5 5 8 5 4 3 4 5 1 2 3 11 8 3 5 5 4 2 3 3 4 4 2 2 3 7 3 8 17 19 18 15 16 14 11 12 14 14
34 37 41 42 38 26 12 3 2 3 5 7 4 4 6 7 3 4 5 10 2 1 5 2 5 8 8 7 3 3 4 7 11 12 6 13 16 16 17 15 14 13 12 13 14
34 37 42 44 37 22 4 3 2 1 9 14 16 11 12 4 4 1 10 6 5 6 3 3 10 10 6 5 6 6 7 9 9 10 5 13 19 14 15 16 16 15 15 12 12
36 38 42 45 27 3 3 4 4 6 4 4 5 4 4 11 6 5 10 6 5 7 7 9 2 7 8 7 7 8 7 9 10 9 10 14 20 12 10 11 14 16 15 12 12
37 39 41 47 4 6 4 4 4 3 3 4 2 3 5 5 4 9 12 6 4 8 7 7 5 6 5 6 7 7 7 7 7 9 12 8 17 18 15 20 18 15 15 15 13
39 40 42 30 13 4 2 4 1 3 1 2 3 5 3 5 2 3 5 5 10 7 5 2 4 5 4 3 8 7 3 7 9 13 15 16 14 14 7 14 15 15 16 17 14
41 42 42 11 7 5 3 3 3 2 2 2 4 3 3 2 0 4 3 2 1 7 7 10 1 3 2 3 4 2 4 10 6 7 12 17 16 8 12 16 15 15 16 16 12
46 47 19 6 2 1 4 2 1 3 6 4 4 4 2 2 2 2 4 6 6 4 9 8 9 4 5 8 3 1 5 8 7 7 11 7 13 14 20 15 19 21 19 11 8
50 21 6 3 6 3 1 2 2 2 4 7 7 7 5 5 3 3 2 3 1 4 7 5 6 4 3 1 2 2 3 5 12 14 19 16 10 8 15 11 14 14 5 7 8
41 12 6 13 3 2 1 1 1 2 5 8 9 3 8 4 6 5 4 4 1 4 5 4 3 1 2 3 2 4 4 1 7 14 12 8 16 18 7 13 17 15 14 14 11
18 10 6 10 5 1 2 1 1 8 7 4 2 1 3 5 8 7 6 2 3 0 2 2 4 1 2 3 7 2 5 3 1 5 9 9 17 11 7 11 13 18 16 14 16
7 2 11 6 4 3 1 0 3 4 9 8 5 6 6 6 3 3 2 0 1 3 2 4 3 1 1 5 8 3 4 2 1 3 5 8 7 3 9 12 14 12 12 12 13
6 0 14 6 1 2 1 4 5 7 7 5 9 7 8 4 6 6 10 1 4 2 1 2 2 5 10 1 4 5 8 9 5 5 5 3 15 12 13 5 8 10 9 10 13
4 3 9 7 2 3 4 4 4 4 2 2 6 6 4 3 5 1 3 3 1 2 3 5 2 4 3 3 3 5 8 10 5 1 12 10 10 1 6 16 21 16 10 9 11
3 4 4 5 3 5 6 3 3 8 5 3 6 4 4 4 2 4 4 4 2 1 2 7 5 11 10 10 2 6 9 11 11 8 14 18 29 23 21 22 20 15 13 15 16
3 2 1 4 4 7 3 4 8 4 3 4 4 6 6 3 5 5 10 5 3 1 3 4 7 7 11 12 12 15 17 16 17 18 16 23 23 23 21 17 13 14 15 17 19
2 2 1 3 6 7 3 2 9 5 2 1 5 7 7 6 7 13 16 14 9 3 4 2 3 3 10 12 13 14 16 16 17 18 20 19 21 17 12 17 19 19 19 22 22
1 2 1 1 3 4 3 5 8 10 5 6 6 8 9 11 8 17 15 13 11 5 6 3 3 2 4 4 11 13 4 3 5 7 9 15 20 14 20 18 19 22 23 26 26
Wind_Direction
345 341 336 332 327 323 319 314 310 307 305 303 304 304 306 311 310 304 247 229 93 212 151 120 120 138 131 139 132 138 219 236 229 224 229 207 350 279 300 284 292 289 293 316 337
347 342 339 332 329 324 320 316 310 306 306 305 303 302 310 319 313 264 275 231 213 190 182 159 135 142 124 148 159 201 218 233 238 246 256 273 280 290 287 281 282 287 278 313 39
349 345 342 338 332 329 323 319 313 308 305 303 303 306 314 324 298 258 323 219 146 128 177 165 135 134 128 150 169 169 230 207 228 244 266 274 263 256 274 272 277 276 294 301 295
353 348 342 340 337 332 327 320 315 310 305 303 304 310 318 296 170 328 344 164 161 136 135 133 137 134 144 172 166 206 208 223 260 248 259 265 269 264 260 267 270 274 281 287 285
360 352 347 343 340 333 328 322 316 311 305 302 310 313 313 225 254 317 48 145 160 161 158 147 154 144 161 166 153 209 240 242 258 271 261 262 252 255 267 268 259 253 263 266 269
8 3 1 1 351 342 331 320 313 305 302 300 297 303 246 258 172 268 163 150 163 158 164 156 160 177 118 149 191 172 216 275 264 260 246 253 257 245 262 266 260 254 256 261 261
8 6 3 5 357 344 336 325 311 297 288 291 272 178 229 249 207 62 172 178 171 170 157 198 162 179 154 150 147 103 307 300 231 257 262 259 261 233 253 281 272 270 263 269 268
3 360 359 356 356 344 327 323 309 287 271 252 217 205 253 246 267 241 188 185 188 188 154 146 172 64 221 115 72 151 130 290 359 316 271 210 274 259 310 333 305 295 287 284 280
357 358 355 354 350 342 324 321 321 253 194 165 161 219 273 281 257 231 196 179 183 192 192 122 139 89 138 140 191 34 251 270 306 236 280 240 292 306 304 303 290 287 289 295 293
352 353 353 351 347 338 332 2 53 94 131 170 258 268 250 102 291 176 192 169 138 144 135 149 127 166 126 209 269 180 266 233 275 264 282 287 284 286 288 281 280 275 280 284 286
346 347 348 346 343 331 324 163 187 195 208 221 226 264 279 315 270 191 157 151 129 152 192 80 221 224 227 221 259 253 252 271 275 277 267 272 281 283 284 290 279 267 257 264 267
342 344 343 340 338 320 206 216 185 73 294 237 250 255 252 314 318 181 154 153 170 198 139 223 260 245 205 190 214 232 272 276 273 270 227 288 286 287 264 267 270 272 271 258 265
339 340 339 336 332 342 223 225 173 345 287 294 198 200 200 174 214 236 180 147 179 189 203 233 189 104 183 208 233 256 247 281 291 310 279 285 282 269 258 257 260 259 266 269 252
337 338 337 335 329 324 255 139 253 199 324 277 252 177 126 163 216 206 188 165 188 227 198 248 237 237 193 222 212 275 223 254 274 305 303 351 293 273 273 272 265 261 262 268 269
336 335 333 334 286 247 162 333 119 179 38 80 86 161 143 195 138 142 177 193 207 185 184 178 185 171 200 238 185 292 254 269 280 287 294 280 271 292 276 268 266 270 263 264 266
335 333 333 331 231 259 256 328 160 211 259 42 115 152 160 251 297 127 151 153 85 226 229 263 204 231 233 147 225 314 285 285 279 283 262 274 258 294 295 290 293 274 267 263 257
335 333 325 261 257 105 329 154 166 236 332 25 6 346 317 253 185 175 165 182 221 215 248 250 247 266 242 260 144 139 321 298 274 249 275 331 303 277 303 309 305 303 283 290 322
337 348 15 337 275 293 158 139 209 1 0 354 341 346 14 349 13 10 152 226 178 226 263 264 268 186 129 131 275 280 256 269 288 292 296 308 266 277 336 4 348 331 316 17 4
345 7 14 345 229 256 105 198 87 21 360 333 324 199 191 177 2 353 356 313 279 186 217 197 257 94 71 151 211 143 229 48 284 275 279 249 271 282 50 19 3 7 7 348 338
348 339 357 352 27 342 80 250 87 51 352 343 322 37 276 213 197 208 218 196 182 41 279 171 265 353 72 152 62 253 137 221 205 274 275 280 286 260 327 341 345 349 347 347 350
1 11 357 347 330 45 70 312 318 66 41 6 327 298 282 210 240 218 230 74 351 140 91 153 243 241 276 210 261 190 198 177 281 255 276 296 278 211 277 313 313 334 322 334 334
345 54 349 358 360 32 69 336 332 354 6 321 315 262 263 302 318 265 253 143 350 188 171 72 197 246 260 124 284 243 246 217 230 204 228 287 277 277 279 246 316 307 301 328 321
353 301 349 9 15 30 339 333 313 324 290 279 244 312 307 239 213 19 28 12 173 186 188 176 209 277 243 159 153 207 202 222 233 279 258 269 264 55 278 287 308 303 302 304 309
355 344 354 36 38 16 354 301 327 333 299 254 298 306 309 282 220 233 203 305 286 268 170 171 220 244 256 289 227 248 242 229 245 262 274 259 280 288 293 297 304 299 313 319 320
11 70 30 355 348 336 291 299 304 304 21 26 293 268 353 268 320 284 286 255 216 191 125 213 249 230 256 266 265 271 273 264 251 257 257 276 287 300 311 313 315 306 308 312 314
15 359 83 316 300 304 288 269 288 352 352 311 230 270 277 254 266 279 298 287 263 177 177 181 240 257 280 274 278 278 272 267 263 266 265 274 285 283 306 314 309 309 311 309 308
45 112 287 310 332 316 296 3 325 337 279 248 288 291 267 270 270 275 283 271 260 218 184 198 209 268 276 311 305 279 327 256 253 261 278 282 296 318 307 314 310 308 304 300 298